IUS DEB, 43364

Orbit data source: Space-Track

IUS DEB, 43364 is space debris originally from a launch on Fri, 23 Jul 1999 UTC launched from the Air Force Eastern Test Range (AFETR). Debris objects in space refer to the collection of defunct objects orbiting the Earth. Examples of debris include non-operational satellites, rocket bodies, and fragments generated from explosions, collisions, or faulty payload assembly.

Loading next visibility...
Identifier
43364, 1999-040M
Orbit
Active
Country
Flag of USUS
Related business
Manufacturer
Boeing/Kent
Mission
Spacecraft
Bus & Motor
Unknown
Mass
Unknown
Launch date (UTC)
1999-07-23 (27 years ago)
Launch vehicle
Unknown
Launch site
Air Force Eastern Test Range (AFETR)
Object type
Payload
Rocket body
Debris
Shape & HBR
Unknown shape, 0.1 m
Radar Cross Section
Small (<0.1 m²)

Expand to show TLE details & history
Last TLE update: 21 hours ago

TLE from 21 hours ago
0 IUS DEB
1 43364U 99040M   26265.05949595  .00001429  00000-0  82510-2 0  9993
2 43364  28.0994 195.2088 3783761 129.3117 270.8689  7.03453742145832
Epoch: 2026-09-22T01:25Z
TLE epoch observation values (Epoch: 2026-09-22T01:25:40.450Z)
Latitude
-0.00001°
Longitude
172.85983°
Altitude
6,583.883 km
Speed
5.183 km/s
True Right ascension
13h 00m 50s
True Declination
0° 00' 00"
Sunlit
Object was in daylight at epoch
Visualization orbit readout
Latitude
Unknown
Longitude
Unknown
Altitude
Unknown
Speed
Unknown
Apparent Right ascension
Unknown
Apparent Declination
Unknown
Sunlit
N/A
Visualization observer readout
Local Sidereal Time
16:00:25
Azimuth
Unknown
Elevation
Unknown
Doppler factor
Unknown
Orbital elements
Apogee altitude
9,485.437 km
Perigee altitude
776.062 km
Semi-major axis
11,508.886 km
Eccentricity
0.37838
Inclination
28.0994°
RAAN
195.2088°
Arg. of periapsis
129.3117°
True anomaly
230.72979°
Mean anomaly
270.8689°
Eccentric anomaly
250.44056°
Mean motion
1.7579 °/min
Orbital period
204.79 mins
BSTAR
0.008251
Loading maneuver chart data...
Computing Atmospheric mass density...
Loading historical data...
Loading historical data...
Loading historical data...
Loading historical data...
Loading historical data...
Loading historical data...
Loading historical data...

Documentation

Showing up to 5 results
|